Location: Beau Repaire
(50.6144°N, 4.0551°E)
Time: 13:11:35
(UTC+00:00)

ADEOS - Pass Details

Date: 15 May 2026
Orbit: 789 x 792 km, 98.8° (Epoch: 11 June)

Event Time Altitude Azimuth Distance (km) Brightness Sun altitude
Exits shadow 20:25:07 - 176° (S) 3,174 6.2 -8.3°
Reaches altitude 10° 20:27:13 10° 180° (S) 2,353 5.6 -8.5°
Maximum altitude 20:32:19 56° 259° (WSW) 937 4.2 -9.1°
Drops below altitude 10° 20:37:28 10° 338° (NNW) 2,369 7.3 -9.6°
Sets 20:39:51 0° 342° (NNW) 3,303 8.1 -9.9°
